Wind_Speed
19 19 19 19 18 17 16 15 14 14 15 14 14 13 11 10 9 9 8 9 9 9 9 10 12 15 18 20 21 22 23 24 24 25 25 26 26 27 28 29 28 27 27 29 33 35 35 34 34 34 31 26 24 25 29 32 34 35 34 34 34 35 36 36 36 35 34 34 33 31 28 25 22 20 18 16 13 13 15 17 17 17 17 19 20 22
18 17 17 17 17 17 17 16 14 14 14 14 14 13 12 11 10 9 8 8 8 9 9 9 10 12 14 16 18 19 20 22 22 23 24 25 25 27 28 28 28 27 26 27 31 35 37 36 36 35 32 28 27 27 29 32 34 35 35 35 35 35 36 36 36 35 35 34 32 30 26 23 20 19 18 16 15 15 17 18 18 19 20 21 22 23
16 15 15 16 16 16 16 16 15 13 13 13 13 13 13 12 11 10 9 8 7 7 8 9 10 11 12 13 14 16 17 18 19 20 22 23 24 25 26 26 27 28 27 26 28 32 35 36 37 37 33 29 28 29 31 33 34 35 34 34 34 35 36 36 35 35 35 32 30 27 25 21 19 19 18 17 16 17 18 19 20 21 21 22 23 23
14 14 14 14 14 14 14 15 15 13 12 11 11 11 11 11 11 11 10 8 7 6 6 7 8 9 10 11 12 13 14 15 16 17 19 20 21 22 23 24 26 28 29 27 27 29 33 35 37 38 35 29 28 29 31 32 33 33 33 32 32 33 34 35 36 35 34 31 28 26 23 21 19 19 18 17 17 18 19 20 21 22 23 23 23 23
14 13 13 12 12 12 13 13 14 14 13 11 10 9 9 9 10 10 10 9 8 7 6 5 6 6 8 9 11 12 12 13 14 16 17 19 20 21 21 23 25 28 30 28 26 27 31 34 38 39 37 31 29 29 29 31 31 30 30 29 30 31 33 35 35 34 32 29 27 25 23 21 20 19 18 17 17 18 19 20 21 22 23 23 23 22
15 14 13 12 11 11 11 11 12 13 13 12 10 8 7 7 7 8 9 8 8 7 7 6 5 4 5 6 8 10 11 12 14 16 17 18 19 19 20 22 25 28 30 29 26 25 29 35 41 42 39 34 30 29 29 29 29 28 27 27 29 30 32 34 34 32 30 27 25 24 23 21 20 19 18 17 18 19 20 21 22 23 23 23 23 23
15 15 14 14 12 11 10 9 10 10 10 10 9 8 6 5 5 6 7 6 6 6 6 5 5 4 3 4 6 8 9 11 13 15 16 18 18 18 19 20 23 26 29 29 26 25 26 35 42 43 39 34 31 29 28 28 27 26 26 27 29 31 33 33 32 30 27 25 24 24 22 21 19 18 17 17 18 20 21 21 22 23 23 23 23 23
15 15 15 15 14 13 11 10 9 8 9 8 7 5 4 3 3 4 5 4 4 3 3 3 3 3 2 3 4 6 8 10 11 13 14 16 17 17 18 18 20 23 26 27 26 25 26 35 41 42 36 32 28 26 26 26 26 26 26 28 30 32 33 32 30 28 26 24 24 23 21 19 18 17 17 18 20 21 22 22 23 24 24 24 24 24
14 14 14 15 15 14 13 11 10 9 10 9 8 5 3 2 2 2 2 2 2 1 1 1 1 1 1 1 3 5 6 8 10 11 12 13 14 15 16 17 18 20 23 25 25 25 26 35 40 38 31 28 26 26 26 26 26 26 28 30 32 33 33 31 28 26 25 24 24 22 20 18 17 17 18 20 21 22 22 23 23 24 24 25 25 25
12 12 13 14 14 14 13 12 11 11 12 13 12 9 5 5 5 6 6 5 4 3 3 3 2 1 1 1 1 3 5 7 9 10 11 11 11 12 13 14 16 19 21 23 24 25 29 35 37 33 28 27 28 28 28 27 27 27 29 31 33 33 32 29 26 25 23 23 23 21 19 18 18 19 19 20 21 21 21 22 23 23 24 24 25 25
10 11 11 13 13 14 13 12 12 11 12 13 13 12 10 10 12 13 14 13 11 9 6 4 3 2 1 3 3 2 4 5 7 9 10 10 9 9 10 12 14 18 21 23 25 27 31 34 34 31 29 30 30 30 29 29 28 28 29 32 33 32 30 27 25 23 22 22 21 20 19 19 19 20 20 19 19 19 20 20 21 22 23 23 24 24
10 10 10 11 12 12 12 12 11 11 11 11 11 11 11 13 14 14 15 15 16 15 13 10 6 2 2 4 5 6 6 6 6 7 8 8 8 8 8 10 13 18 22 25 27 30 33 34 34 32 31 31 31 29 28 28 28 28 29 31 32 31 29 26 24 22 22 21 20 20 19 20 20 19 18 17 17 18 18 19 20 21 21 22 23 23
13 12 11 10 10 10 11 11 11 10 10 9 9 9 9 10 11 11 12 13 14 15 15 14 12 7 2 3 5 6 8 8 7 6 6 7 7 7 6 9 14 20 24 26 28 29 30 31 31 30 29 28 27 26 24 24 25 26 28 30 31 30 28 25 23 22 21 20 20 19 19 19 19 18 17 16 17 18 19 19 20 21 21 22 22 20
18 16 14 12 10 9 9 9 9 9 9 9 8 8 8 8 8 8 10 11 12 12 13 13 13 12 9 3 3 4 5 6 7 6 6 7 7 6 7 11 18 24 27 28 27 26 25 25 25 25 24 23 21 21 21 20 21 23 26 29 30 30 28 25 23 21 20 19 18 18 18 18 17 16 16 17 18 19 20 20 21 21 22 21 19 17
23 21 19 16 13 11 9 8 7 7 7 7 8 8 8 7 7 7 8 9 10 10 10 10 11 11 11 9 6 4 2 3 5 7 9 10 11 11 12 16 21 26 28 27 25 23 22 21 22 23 22 19 17 16 18 20 21 22 24 28 31 31 28 24 21 20 18 17 16 16 16 16 16 17 18 19 20 20 20 21 21 22 21 19 16 14
25 24 23 21 19 16 13 10 8 6 6 6 6 7 7 7 7 7 8 8 9 9 9 9 9 9 9 9 9 8 5 3 2 5 10 13 15 16 17 19 22 25 25 24 22 20 19 20 21 22 21 18 15 14 15 20 22 23 24 29 32 31 27 23 20 18 17 16 15 16 16 16 17 18 20 20 20 21 21 21 21 21 19 16 13 13
26 26 25 24 23 21 19 16 12 9 7 5 5 5 6 6 6 7 7 8 8 8 9 9 9 8 7 7 8 8 8 6 4 3 6 11 15 18 19 19 20 21 21 20 18 17 16 16 17 18 18 18 17 16 16 17 19 21 24 29 32 30 27 25 22 20 18 16 16 17 17 18 19 20 21 21 21 20 21 21 20 18 15 13 12 13
25 25 25 25 24 24 22 21 18 15 12 9 6 5 5 5 5 6 6 7 7 8 8 9 9 8 6 5 4 4 5 5 4 2 3 7 11 14 16 17 16 16 17 17 16 16 16 16 17 17 17 17 17 17 16 16 16 18 21 26 29 29 28 28 25 22 19 18 18 18 19 21 21 22 21 21 20 21 21 20 18 15 13 12 12 13
24 24 25 25 25 24 23 22 21 19 16 13 10 8 7 6 5 5 5 6 6 7 7 8 8 8 7 4 2 2 1 1 2 2 1 4 7 11 13 15 16 16 16 16 16 17 19 21 22 21 19 17 15 15 16 16 16 17 20 23 25 27 28 27 25 22 19 19 20 21 22 23 23 22 21 21 21 20 19 17 15 13 12 13 13 14
22 22 23 24 24 24 23 22 22 21 19 17 15 13 10 9 8 7 6 6 5 5 5 6 7 7 6 5 4 3 3 3 3 2 2 1 3 6 9 12 14 16 17 18 18 19 21 23 23 21 18 17 17 18 19 19 20 21 22 22 23 23 23 22 20 19 19 20 22 24 25 25 24 22 21 21 20 19 16 14 13 12 13 14 15 16
20 21 21 22 22 23 22 22 22 21 21 20 18 17 15 13 12 10 9 8 7 6 5 5 5 5 4 5 5 4 4 4 5 5 4 3 3 3 5 7 10 13 15 18 19 21 22 23 22 20 19 19 19 20 21 22 23 23 23 22 20 19 18 17 18 19 20 22 24 26 26 25 23 22 21 20 18 16 14 12 12 12 13 15 16 16
19 19 19 20 20 21 21 21 21 21 21 20 20 19 18 17 15 14 13 12 11 10 9 7 6 4 3 4 4 4 4 5 6 7 7 7 6 5 5 5 6 8 12 16 19 21 22 22 21 20 19 18 17 17 17 18 20 20 21 20 19 19 19 19 20 21 23 24 25 25 25 24 23 22 21 19 16 13 12 11 12 13 14 15 16 16
18 18 18 19 19 19 19 20 20 20 20 20 20 19 19 18 17 16 16 15 14 13 13 11 10 8 6 5 4 4 4 5 6 7 8 9 8 7 6 7 7 6 9 14 18 20 21 20 18 16 14 13 12 12 13 14 15 17 18 19 20 21 22 23 24 25 25 25 25 24 23 22 22 21 19 16 13 11 10 11 12 14 15 15 16 15
18 18 18 18 18 18 18 18 19 19 19 19 19 19 19 18 18 17 17 16 16 16 15 15 14 12 10 8 6 5 5 5 6 7 8 8 7 6 5 6 8 8 9 15 20 21 21 18 15 12 10 9 9 11 13 14 15 17 18 20 22 23 25 26 27 26 26 24 23 23 22 21 20 18 16 13 11 10 10 10 12 13 14 15 15 14
18 18 18 18 18 18 18 18 18 18 18 18 18 18 18 18 18 17 17 17 16 16 16 15 15 14 13 12 10 8 6 6 6 7 8 8 6 3 3 6 10 11 13 17 21 22 20 17 14 12 10 9 11 14 17 19 20 21 23 24 25 26 27 27 27 26 25 23 22 21 20 19 18 16 13 11 9 9 9 10 12 13 13 13 13 12
17 17 17 17 18 18 18 17 17 17 17 17 17 17 17 18 18 17 17 17 17 16 15 15 15 14 14 13 12 10 9 7 7 7 8 8 5 2 4 8 13 15 16 19 20 19 17 15 13 13 12 12 14 18 21 23 25 26 26 26 26 26 26 25 25 24 23 22 21 19 18 17 15 13 11 9 8 8 9 10 11 12 12 11 11 10
16 16 16 16 17 17 17 17 17 17 16 16 16 16 17 17 17 17 17 17 16 16 16 15 15 15 14 14 13 12 10 9 8 7 8 8 6 4 6 11 15 18 19 19 18 17 15 15 15 15 15 16 17 20 23 25 26 26 26 25 24 23 23 23 22 21 20 19 18 17 16 14 12 11 9 8 8 9 10 10 11 11 10 9 9 10
15 15 15 16 16 16 16 16 16 16 16 16 16 16 16 16 17 17 17 17 16 16 16 16 15 15 14 14 13 12 11 10 8 7 7 8 7 7 8 12 16 18 19 20 19 18 17 18 18 18 18 18 19 21 23 24 25 25 23 22 21 21 20 20 20 19 18 16 15 14 13 12 10 9 8 8 9 9 10 10 10 9 8 8 9 9
15 15 15 15 15 15 15 15 15 15 15 15 15 15 15 15 16 16 16 16 16 16 17 16 16 15 14 14 13 13 12 10 9 8 7 8 8 9 10 13 16 18 19 20 21 21 20 20 20 19 18 18 19 21 22 23 22 21 20 19 18 18 17 17 17 16 15 14 14 13 12 10 9 8 8 9 10 10 10 10 9 8 8 8 9 10
14 15 15 15 15 15 15 15 15 15 15 15 15 15 15 15 15 15 15 15 16 16 17 16 16 16 15 14 14 13 12 11 10 8 7 7 8 10 11 13 15 17 18 20 22 23 23 22 21 20 19 19 20 20 21 20 19 18 17 16 15 15 14 14 14 14 14 14 13 12 11 10 9 9 9 10 10 10 10 9 8 8 8 8 9 10
14 14 14 14 14 14 14 14 14 14 14 14 14 14 14 14 14 14 14 15 15 15 16 16 16 16 16 15 14 14 13 11 10 9 8 7 8 10 12 13 15 16 18 20 22 24 24 24 22 21 21 21 21 20 20 19 18 16 15 14 13 13 12 12 13 13 14 14 13 12 11 9 9 9 10 10 10 10 10 9 8 7 8 9 10 10
14 14 14 14 13 13 13 13 13 13 13 13 13 14 14 14 14 14 14 14 14 14 15 15 16 16 16 16 15 14 13 12 11 10 9 8 8 9 12 14 15 17 19 20 23 24 25 25 23 22 21 21 21 20 20 19 17 16 15 14 13 12 12 12 13 14 14 14 13 12 11 10 9 9 10 10 10 10 10 9 8 8 9 10 10 10
14 14 14 14 14 13 13 13 12 12 12 12 13 13 13 13 13 13 13 14 14 14 14 14 15 16 16 16 16 15 14 13 12 11 10 9 9 9 10 13 15 18 20 21 23 24 24 24 24 23 22 21 21 20 20 19 17 16 15 14 12 12 12 12 13 14 15 14 13 12 11 10 10 10 10 10 10 10 9 8 8 8 9 10 10 10
14 14 14 14 14 13 13 13 12 12 12 12 12 12 12 13 13 13 13 13 13 13 14 14 14 15 15 16 16 16 15 14 13 12 11 10 10 10 10 12 14 17 20 22 23 24 24 24 24 23 22 22 21 20 19 18 17 16 15 14 13 13 13 13 14 14 15 15 14 13 12 11 10 10 10 10 11 10 10 9 9 9 10 11 11 10
15 15 15 15 14 14 14 13 13 12 12 11 11 11 11 11 12 12 12 12 13 13 13 13 14 14 14 15 16 16 16 15 14 14 13 11 11 11 11 11 13 16 19 22 24 24 24 24 24 23 22 21 20 19 18 17 16 15 15 14 14 14 14 14 14 15 15 15 15 14 13 12 11 11 11 11 11 11 10 9 9 10 10 11 11 10
16 16 16 16 15 15 15 14 14 13 13 12 11 11 11 11 11 11 11 12 12 12 12 13 13 13 14 14 15 15 15 15 15 15 14 13 12 12 11 11 12 15 18 21 23 25 25 25 24 23 22 20 18 17 16 15 15 15 15 15 15 15 15 15 15 15 16 16 15 15 14 13 12 11 11 11 12 11 10 10 10 10 11 11 11 10
16 16 16 16 16 16 16 16 15 15 14 13 13 12 11 11 10 10 11 11 11 11 12 12 13 13 13 14 14 15 15 15 16 16 15 14 13 12 12 12 12 14 16 20 23 25 26 25 25 24 22 20 18 16 15 14 14 14 15 16 16 17 17 17 16 16 16 16 16 16 15 14 13 12 12 12 12 12 11 10 11 11 11 11 10 10
17 17 17 17 17 17 17 17 16 16 15 15 14 13 12 11 11 10 10 10 11 11 11 12 12 13 13 13 14 14 15 16 16 16 16 15 14 13 13 13 13 14 15 19 22 25 27 27 26 25 23 22 20 18 17 16 15 15 15 16 17 18 18 18 18 17 17 17 17 17 16 15 14 13 13 13 13 12 12 11 11 11 11 11 10 10
17 18 18 18 18 18 18 18 17 17 17 16 16 15 14 13 12 11 11 10 11 11 11 12 12 12 13 13 14 14 15 16 16 17 17 17 16 15 14 14 14 14 15 17 21 24 27 29 29 28 27 26 24 23 22 20 19 19 18 18 19 19 20 20 19 19 18 18 18 17 17 16 15 14 14 13 13 13 12 12 11 11 11 11 10 10
18 18 18 19 19 19 19 18 19 18 18 18 18 17 16 15 14 13 12 11 11 11 11 11 12 12 12 13 13 14 15 16 16 17 18 18 18 17 16 15 15 15 15 17 19 23 26 29 31 32 32 31 30 28 27 26 25 23 22 21 21 21 21 21 21 20 20 19 18 18 17 16 15 15 14 14 14 13 12 12 12 11 11 11 11 11
19 19 19 19 20 20 20 20 20 20 19 19 19 18 18 17 16 15 15 14 13 12 12 12 12 12 13 13 14 14 15 16 17 17 18 19 19 19 18 17 16 16 16 17 18 20 23 27 30 32 33 34 33 33 31 30 29 27 25 24 23 22 22 22 22 21 21 20 19 18 17 17 16 15 15 14 14 14 13 12 12 11 11 11 11 12
19 19 20 20 20 20 20 21 21 21 20 20 20 19 19 18 18 17 17 16 15 14 13 13 12 13 13 14 15 15 15 16 17 17 18 19 20 20 20 19 18 18 17 17 18 19 21 24 26 29 31 33 33 33 32 32 31 29 27 25 24 23 23 23 23 22 21 20 20 19 18 17 16 16 15 15 15 14 13 12 12 11 11 11 12 13
19 20 20 20 21 21 21 21 21 21 21 21 20 20 20 20 19 19 18 17 17 16 15 14 13 13 13 14 15 16 16 17 17 18 19 19 20 21 21 20 20 19 19 18 18 19 19 21 23 25 27 29 29 29 29 29 29 28 28 26 25 24 24 24 23 23 22 21 20 19 18 17 17 16 16 15 15 14 13 12 12 12 12 12 13 14
20 20 20 21 21 22 22 22 22 22 22 21 21 21 21 21 20 20 20 19 19 18 17 15 15 14 14 14 15 16 17 17 18 18 19 20 21 21 21 21 21 21 20 19 19 19 19 20 20 22 22 24 24 25 25 26 26 27 27 26 25 25 24 24 23 23 22 21 20 20 19 18 17 17 16 16 15 14 13 12 12 12 12 13 14 14
20 20 21 21 21 22 22 22 22 23 23 23 22 22 21 21 21 20 20 20 20 19 18 17 16 16 16 16 16 16 17 18 19 19 20 20 21 21 22 22 22 21 21 20 20 19 19 19 19 19 19 20 20 21 22 23 25 26 26 26 25 25 25 24 24 23 22 21 21 20 19 18 18 17 17 16 16 14 13 12 12 12 13 14 14 15
21 21 21 22 22 22 22 23 23 23 23 23 23 23 22 22 21 21 21 21 21 21 20 19 18 17 17 17 17 17 17 18 19 20 20 21 21 22 22 22 22 22 21 20 20 20 19 19 18 17 17 17 18 19 20 22 25 26 27 26 26 25 25 24 24 23 22 22 21 20 19 19 18 18 18 17 16 15 14 13 12 13 13 14 15 15
21 21 22 22 22 23 23 23 23 24 24 24 24 23 23 23 22 22 22 22 22 22 22 21 20 19 18 18 18 18 18 19 20 20 21 21 22 22 22 23 22 22 21 20 20 20 19 19 18 17 16 16 17 18 20 22 25 27 28 27 26 25 25 24 23 23 22 22 21 20 19 19 19 19 18 17 16 15 14 13 13 13 14 15 15 15
22 22 23 23 23 23 23 24 24 24 24 24 24 24 24 23 23 22 22 22 22 23 23 23 22 21 20 19 19 19 19 20 20 21 21 22 22 23 23 23 22 22 21 20 20 19 19 19 18 17 16 16 17 18 21 23 26 28 28 27 26 25 24 23 23 23 22 22 21 20 20 20 20 19 19 17 16 15 14 13 13 13 14 15 15 15
24 24 24 24 24 24 24 24 24 24 24 24 24 24 24 24 24 23 23 23 23 23 23 23 23 22 22 21 20 20 20 20 21 21 22 22 23 23 23 23 22 21 20 19 19 19 19 18 17 16 16 16 17 19 22 24 26 27 28 27 26 25 24 23 23 23 22 22 21 20 20 20 20 19 19 18 17 15 14 13 13 14 14 15 15 16
25 25 25 25 24 24 24 25 24 24 24 25 24 24 24 24 24 24 23 23 23 24 24 24 24 23 22 22 21 21 21 21 22 22 23 23 23 23 23 22 21 20 19 19 18 18 18 18 17 17 16 17 18 20 23 25 27 27 27 26 25 24 23 23 23 23 22 22 21 21 21 21 21 20 19 18 17 15 14 13 13 14 15 16 16 16
26 26 25 25 25 25 25 25 25 25 25 25 25 24 24 24 24 24 24 24 24 24 24 24 24 23 23 22 22 22 22 22 22 23 23 23 23 23 22 22 21 20 19 18 17 17 17 17 17 17 17 18 19 21 24 26 27 27 26 25 24 23 23 23 23 23 22 22 22 22 22 22 21 20 19 18 17 15 14 14 14 14 15 16 16 16
Wind_Direction
30 32 34 35 36 37 39 45 50 54 56 60 64 68 74 79 85 92 103 116 127 138 155 176 191 198 201 204 206 208 210 212 214 216 216 218 220 224 228 230 228 225 225 224 224 224 223 221 218 213 211 212 214 215 214 213 212 211 210 210 209 205 201 199 199 202 207 210 212 213 213 213 213 215 218 219 217 220 230 236 242 247 253 259 264 268
28 30 33 34 36 37 38 43 50 57 60 62 63 64 66 72 79 88 100 112 124 134 145 159 175 189 198 203 207 209 211 214 215 217 217 218 220 224 227 227 223 219 219 220 220 219 220 220 218 216 215 213 212 213 215 215 213 212 211 211 209 205 201 199 200 204 208 211 213 214 215 214 215 217 219 219 219 224 231 238 243 248 254 259 264 268
28 29 32 35 37 38 40 43 48 55 61 65 65 64 62 63 68 77 87 101 116 132 147 155 162 170 180 190 198 203 208 211 213 215 217 218 220 224 227 225 220 215 215 218 219 220 220 221 221 220 219 216 212 211 214 215 214 212 211 212 210 206 202 200 202 206 210 212 214 216 216 216 217 219 222 224 227 231 237 243 247 251 255 260 264 268
31 32 34 37 39 41 43 46 49 53 59 64 68 68 66 63 63 67 74 84 99 117 139 152 159 163 168 176 184 191 198 203 207 211 215 218 221 224 226 225 220 214 211 213 216 220 223 225 224 223 222 218 212 210 213 215 214 212 211 212 211 207 204 202 205 208 211 213 215 217 218 218 219 223 227 231 236 240 244 247 250 253 257 260 263 267
38 38 39 41 43 45 46 49 51 54 57 61 65 68 71 70 66 64 65 71 79 90 104 121 142 159 169 176 182 187 193 198 204 209 214 219 222 224 225 224 220 215 211 210 214 220 223 226 225 223 221 217 211 209 212 214 214 213 213 213 212 209 206 206 208 210 212 214 216 219 220 221 223 227 232 238 243 247 249 251 253 255 258 260 264 268
45 45 45 47 49 50 51 51 53 55 57 59 60 63 68 74 74 70 65 64 67 71 77 85 100 130 162 179 188 193 197 202 206 209 213 217 220 222 223 222 220 217 213 212 216 221 224 223 220 219 217 213 209 207 210 212 214 216 216 216 214 211 209 210 212 214 215 216 218 220 222 223 227 231 237 243 247 250 253 254 256 257 259 262 265 270
46 48 50 50 51 52 51 52 51 51 51 53 54 56 62 73 78 77 73 69 66 67 71 75 82 100 139 176 192 200 205 209 212 213 214 215 216 218 220 221 221 219 218 218 222 227 227 220 215 213 212 211 208 206 209 213 217 219 219 217 215 212 212 213 215 217 218 219 221 222 223 226 230 235 241 243 246 250 254 255 257 259 261 264 268 273
45 47 50 52 52 51 49 49 47 45 41 41 40 41 44 54 65 70 75 75 73 70 73 78 83 96 129 172 195 206 212 215 217 219 219 218 216 215 215 218 220 221 221 223 226 231 230 220 213 210 210 210 209 208 210 215 218 220 219 217 215 214 213 215 218 219 219 219 221 223 225 229 234 239 241 241 243 248 252 255 257 260 264 267 272 277
42 44 48 52 54 52 51 51 51 49 44 40 36 35 33 37 30 25 31 41 41 27 16 20 54 78 107 167 203 215 220 221 222 223 223 222 220 217 214 212 214 217 219 222 225 228 226 217 212 209 209 210 210 209 210 213 216 216 216 216 215 215 215 218 221 221 218 217 219 223 227 232 237 239 239 240 242 246 251 255 259 263 267 271 276 281
40 42 45 51 55 56 54 55 55 55 51 46 42 44 62 79 68 53 46 41 29 8 334 310 305 328 54 65 197 222 220 221 221 221 220 220 221 220 218 214 212 211 212 214 216 217 214 210 207 205 204 205 206 207 208 210 211 211 213 215 216 216 218 221 223 222 218 217 219 224 230 235 238 239 240 241 244 248 254 259 264 269 272 275 279 284
39 39 43 49 55 58 58 57 56 55 54 51 47 47 56 69 69 62 57 53 50 42 26 352 317 300 90 86 99 147 181 195 204 208 210 212 216 222 227 225 217 209 205 203 202 202 201 198 196 195 196 198 200 202 204 207 208 208 211 215 218 220 222 224 225 222 219 218 221 227 233 237 239 240 242 245 249 255 261 267 271 274 277 280 284 288
43 42 43 49 55 59 61 60 57 55 53 53 50 49 50 53 55 53 50 49 49 49 44 35 18 350 159 121 109 111 122 136 159 185 199 206 215 225 233 227 214 203 196 191 190 191 191 190 190 191 194 197 199 201 206 210 209 209 212 218 221 224 226 227 225 222 219 220 225 231 236 239 242 244 248 252 258 263 267 271 274 277 281 284 287 289
50 50 50 53 57 63 65 64 61 58 56 54 51 48 47 45 43 40 38 40 42 44 44 41 35 29 37 151 131 112 109 110 117 140 182 206 218 226 226 210 196 188 183 180 181 183 188 193 195 196 198 202 205 208 213 217 215 212 214 220 225 228 230 229 226 222 221 224 230 236 240 244 248 251 255 259 263 266 268 271 275 280 284 287 288 288
53 53 54 56 61 68 72 73 71 68 64 61 57 53 49 46 41 34 30 31 33 35 36 37 35 32 29 48 122 131 124 122 121 128 150 179 196 199 189 182 179 177 174 174 176 181 189 196 199 200 201 203 206 211 216 221 221 217 216 220 226 230 232 230 227 224 225 229 235 241 246 251 255 257 259 261 263 265 267 272 277 283 286 287 287 285
52 53 54 56 60 66 74 81 83 80 74 72 70 66 59 51 42 34 29 28 28 27 28 30 33 34 33 38 53 82 116 152 161 159 158 163 168 171 172 176 177 176 176 179 184 190 196 199 200 199 199 201 206 211 213 217 221 223 221 222 226 229 230 229 228 228 231 236 241 247 252 256 258 258 258 259 261 264 269 274 280 284 285 285 283 282
50 51 52 54 56 60 65 72 78 82 80 79 78 73 65 55 45 38 32 29 28 26 23 22 26 32 36 38 42 46 50 64 139 172 174 169 166 166 171 179 185 186 188 193 201 207 209 208 205 205 207 215 227 233 226 219 219 221 224 225 226 226 224 221 222 227 234 242 248 251 254 255 255 255 256 259 262 267 272 278 282 283 283 281 279 281
46 47 49 51 52 54 57 60 63 66 67 68 69 68 64 57 50 44 35 31 27 23 18 14 16 23 33 37 38 35 33 36 53 122 168 174 173 173 177 186 194 200 205 213 219 222 220 218 216 218 225 237 248 252 246 233 224 221 223 224 224 222 219 216 217 223 234 245 251 253 254 254 254 255 258 262 267 272 276 280 282 282 280 277 277 280
42 43 45 47 48 50 52 54 55 57 57 55 52 48 47 50 50 46 38 30 22 14 9 5 6 10 19 34 44 38 30 26 31 60 151 174 182 187 193 202 212 222 230 235 235 232 230 232 235 239 244 249 251 250 245 238 229 223 220 220 219 218 219 219 221 227 238 247 252 253 253 253 255 258 263 268 272 276 279 281 282 281 278 275 276 279
39 40 41 43 45 47 48 50 52 53 54 53 52 47 40 35 34 35 34 30 22 13 5 357 355 355 357 359 8 11 348 346 5 17 107 183 194 202 210 218 228 239 246 248 243 236 232 235 239 243 244 241 236 229 224 220 216 213 212 212 214 217 220 223 227 234 244 250 251 251 251 253 256 261 267 272 276 278 281 283 283 281 276 274 275 278
37 38 39 40 41 43 45 46 48 50 51 51 50 48 44 39 35 31 28 27 26 22 15 4 356 350 343 334 324 314 303 295 293 300 316 273 225 222 224 228 233 238 245 246 242 234 229 231 233 232 228 220 212 207 204 201 200 201 203 206 210 215 221 227 234 241 246 247 247 247 249 253 259 265 271 274 277 279 283 286 285 280 274 273 275 278
35 36 37 37 38 39 40 41 43 44 46 47 46 45 43 41 38 35 30 27 24 22 21 18 9 358 343 323 308 298 293 284 276 272 276 281 280 267 257 251 248 245 241 239 235 229 224 222 221 219 214 210 208 206 204 201 201 202 204 208 213 221 231 241 247 248 246 244 244 246 250 255 262 268 272 275 277 281 287 288 283 276 272 272 274 278
32 33 35 35 35 35 36 36 37 38 40 41 42 42 41 40 39 36 34 30 27 24 21 19 16 11 354 326 309 296 287 280 274 269 266 266 272 283 293 295 286 262 238 229 225 220 214 213 214 214 212 212 215 217 218 218 217 218 220 224 231 240 250 255 256 252 248 246 247 249 254 259 265 269 272 274 278 285 289 286 278 271 270 272 276 279
28 29 31 32 33 33 33 33 33 34 34 34 36 37 37 38 37 36 34 32 29 25 22 18 15 11 3 348 330 310 294 286 283 278 270 263 267 279 293 305 307 282 228 212 206 203 202 206 209 210 211 217 226 234 238 240 240 241 241 242 245 249 251 253 253 252 251 251 253 255 259 263 266 268 269 273 279 286 286 278 271 268 270 274 277 279
26 26 28 29 30 30 31 31 31 30 30 30 30 30 31 32 33 33 32 30 27 24 22 19 16 13 8 2 349 329 311 299 293 286 278 270 269 274 282 288 286 264 218 198 192 192 196 200 203 204 208 218 229 235 237 236 236 237 238 239 240 242 244 246 249 251 253 255 257 260 262 264 265 266 268 274 280 282 277 269 266 267 271 276 279 278
25 25 25 26 26 27 27 28 28 28 27 26 26 26 26 27 28 28 27 25 24 23 22 20 17 14 10 6 0 349 333 318 304 292 285 277 274 269 246 249 250 239 214 197 192 192 197 204 210 215 219 219 220 221 222 223 223 225 228 231 234 237 241 244 248 252 255 258 261 262 263 263 263 264 269 275 277 273 265 261 263 268 274 278 278 275
24 24 24 24 24 24 24 23 24 24 23 23 22 21 21 22 22 23 22 21 21 21 21 21 20 16 11 8 4 359 349 335 318 302 291 280 273 229 190 216 224 221 210 203 201 202 207 214 221 226 227 224 221 220 221 222 224 226 228 230 232 236 240 244 249 253 257 259 261 261 261 260 261 265 271 273 269 261 256 258 265 272 278 278 276 270
23 22 22 22 22 21 21 20 20 19 19 19 18 18 17 17 16 16 16 15 15 16 18 19 19 17 14 11 7 2 356 344 330 313 299 285 269 221 185 201 210 210 205 204 206 209 212 212 214 218 222 226 229 230 229 229 229 230 231 232 235 238 242 247 251 255 257 258 258 257 257 258 262 267 269 265 257 251 252 259 268 276 279 276 270 265
21 20 20 19 19 18 18 17 17 16 15 15 14 14 13 11 11 11 11 10 9 10 12 12 13 14 14 12 9 4 359 351 340 326 309 290 265 225 195 195 204 210 208 208 208 209 208 207 209 214 220 229 235 238 237 234 233 234 235 238 241 245 249 252 255 256 256 255 253 252 253 257 262 264 262 254 249 249 254 263 272 277 276 270 264 263
18 18 17 16 15 15 15 14 13 12 12 11 10 9 9 7 6 5 5 4 4 4 6 6 6 7 8 8 6 4 1 355 347 337 322 294 265 234 209 194 201 213 218 217 216 214 212 212 214 219 226 235 241 241 239 237 236 237 240 244 248 252 255 256 256 254 251 249 247 248 251 256 259 259 254 248 247 251 259 269 275 276 271 265 261 262
15 15 14 13 12 12 11 10 9 9 8 7 6 5 4 3 2 0 359 359 359 359 360 360 0 1 2 2 3 3 1 357 351 344 330 299 270 248 227 207 203 210 219 222 221 220 220 221 224 228 234 241 244 243 240 238 237 240 244 248 253 256 258 257 254 249 245 242 242 245 248 252 255 253 250 247 249 256 265 272 276 273 265 260 260 262
10 10 10 10 9 8 7 6 5 5 4 3 1 0 359 358 357 356 356 355 353 353 354 354 354 354 355 356 358 359 358 355 352 346 336 314 283 262 247 227 214 212 215 220 220 220 222 225 228 233 239 243 244 243 240 238 238 241 245 250 255 258 259 256 250 244 240 238 239 242 246 250 251 251 249 250 254 261 269 274 274 268 260 257 259 262
4 4 4 4 4 3 2 2 1 0 359 359 358 356 355 353 352 351 350 350 348 348 348 348 348 348 348 349 351 352 353 352 350 346 340 327 304 280 264 245 230 221 218 219 221 222 223 225 229 234 238 241 242 241 240 239 239 241 245 249 253 256 256 253 247 241 238 237 238 241 245 249 251 251 251 253 259 266 271 273 270 262 256 255 258 261
357 357 358 358 358 357 357 356 356 355 354 354 353 352 350 349 348 346 345 344 343 343 342 342 342 342 342 342 342 344 345 345 345 343 339 332 318 299 281 262 246 234 227 225 225 227 229 230 232 236 238 239 240 240 240 240 240 240 242 245 248 251 252 250 245 241 238 237 238 241 246 249 251 252 253 257 263 269 272 270 264 257 253 254 256 258
350 351 351 351 351 351 351 350 350 350 349 349 348 347 346 345 343 341 340 339 338 337 337 336 336 336 337 336 336 336 337 338 337 337 336 331 324 313 297 278 260 246 236 231 229 230 232 234 236 237 239 239 240 240 240 240 239 239 239 239 242 246 248 247 245 242 239 238 240 243 247 251 252 253 256 260 265 269 270 265 258 251 250 251 254 253
343 344 345 345 345 345 345 345 345 345 345 344 343 342 340 339 338 337 335 334 332 331 330 330 330 329 330 330 330 331 331 330 330 331 331 328 323 317 306 290 273 258 245 236 232 231 231 234 236 237 237 238 238 238 238 238 237 237 236 236 237 241 244 245 245 243 241 241 242 245 249 252 253 255 258 262 266 268 266 259 251 247 246 249 251 249
337 338 339 339 339 340 340 340 341 341 341 341 340 338 336 334 333 332 331 329 328 326 324 322 321 320 321 322 322 323 323 322 322 324 325 323 320 315 308 296 282 267 253 242 235 232 231 233 235 236 235 233 232 233 235 236 236 236 236 236 237 239 241 244 245 244 244 244 245 247 250 251 253 255 258 262 265 264 260 252 244 242 244 247 248 244
331 332 333 333 334 335 335 336 337 337 337 338 337 336 334 332 330 328 327 326 324 322 320 318 315 313 311 311 312 313 313 312 313 316 318 318 315 312 308 299 286 272 259 247 239 234 232 232 233 234 233 230 228 229 233 236 238 239 240 240 240 241 242 244 245 245 245 246 247 248 249 250 252 254 258 261 262 260 253 245 239 239 241 245 243 236
327 328 328 328 329 330 331 332 333 333 334 334 334 334 333 331 329 327 325 324 322 320 318 315 312 309 307 304 303 302 302 303 305 308 310 311 310 307 304 299 289 276 264 253 245 239 235 233 233 233 232 232 232 234 237 242 245 248 248 246 245 245 245 245 245 246 246 247 247 248 248 248 250 252 256 258 258 254 247 239 234 236 240 242 238 227
324 324 325 325 325 326 327 328 329 330 331 332 332 332 332 331 330 328 325 323 320 318 316 313 310 307 304 301 299 297 296 296 297 300 302 304 304 302 299 296 290 281 271 260 252 245 241 238 237 236 236 237 239 241 243 247 251 253 253 252 250 248 247 246 246 246 246 246 247 246 246 246 248 250 253 255 253 248 241 234 232 233 237 237 231 219
322 322 322 322 323 324 324 326 327 327 328 329 330 331 331 331 330 329 327 324 321 317 314 312 309 306 303 300 297 294 293 292 292 293 295 297 298 297 295 293 290 285 277 268 259 252 247 244 243 242 242 243 245 246 248 250 253 254 255 254 252 250 248 247 246 245 245 245 245 245 244 245 246 249 251 251 248 242 235 231 230 232 234 231 222 212
320 320 320 320 321 322 323 324 324 325 326 327 328 328 328 328 328 327 327 325 322 319 315 313 311 308 305 302 298 294 292 290 290 290 291 292 293 293 293 291 288 285 281 275 267 260 254 250 248 247 246 247 247 248 250 251 252 253 253 251 250 248 247 246 244 244 244 244 243 243 242 243 245 247 248 247 243 237 231 227 227 229 230 226 217 208
319 318 319 319 319 320 321 321 322 323 324 324 325 325 325 325 325 325 324 323 322 320 317 314 311 308 305 302 299 296 293 291 289 289 289 290 291 291 290 289 288 285 283 279 274 267 260 255 251 249 249 249 249 249 249 249 249 249 249 248 246 245 244 243 242 242 241 241 241 240 240 241 244 245 245 242 238 232 226 223 224 225 224 218 211 205
317 317 317 317 317 318 319 319 320 320 320 321 322 322 322 322 322 322 321 320 320 319 317 315 311 306 302 299 298 296 295 291 289 288 288 288 289 289 289 289 287 286 283 281 278 273 267 260 254 251 249 249 249 248 247 246 245 245 243 243 241 240 238 238 239 238 238 237 237 237 238 239 241 242 241 237 233 227 222 221 222 222 218 211 205 200
316 316 316 316 316 316 317 317 317 317 317 317 318 318 319 319 319 319 319 318 318 317 316 314 311 308 303 299 296 294 294 292 290 288 288 288 288 288 288 288 287 286 284 282 280 277 271 264 257 252 250 248 247 246 244 242 239 238 237 236 235 234 232 233 234 234 233 233 233 234 235 236 238 238 236 232 228 222 218 218 219 217 211 205 200 197
314 314 314 314 314 313 313 313 313 313 314 314 314 315 315 316 316 316 315 315 315 315 314 312 310 308 304 301 297 294 292 291 290 289 287 287 287 287 288 288 287 286 285 282 280 278 273 266 259 253 250 247 245 244 242 239 235 232 230 229 228 228 228 229 229 229 229 229 229 230 231 233 234 233 230 226 221 218 215 215 215 211 205 200 197 195
312 312 312 311 311 311 310 310 310 310 310 311 311 312 312 312 312 312 312 312 312 311 311 310 308 306 304 300 297 294 291 289 288 287 286 286 285 286 286 287 287 286 285 283 281 278 275 269 261 253 248 246 244 243 240 237 233 229 226 224 222 222 223 224 224 225 224 225 225 227 228 230 231 228 223 218 215 214 212 212 210 206 201 196 194 193
310 310 309 309 308 308 307 307 307 307 307 307 307 308 309 309 309 310 309 309 309 309 308 308 307 305 303 300 296 293 290 288 286 285 284 284 284 284 284 285 286 285 284 283 281 278 275 270 263 255 248 245 243 242 240 237 232 227 222 220 218 217 218 219 220 220 220 221 222 223 225 227 226 223 217 212 210 209 208 208 206 202 197 194 192 191
309 308 307 307 306 305 305 304 303 303 303 304 304 305 305 306 306 306 307 306 306 306 306 306 306 305 302 299 295 292 289 286 284 283 282 282 282 282 282 283 284 284 283 282 280 278 275 270 263 256 249 245 244 241 238 234 230 225 221 218 215 214 214 214 216 217 217 217 218 221 222 223 220 216 210 206 204 205 205 204 202 199 195 192 190 189
307 306 305 304 303 302 301 301 300 300 300 300 300 301 302 302 303 303 303 304 304 304 304 304 304 303 301 299 295 291 288 285 283 282 281 280 280 280 280 281 282 282 282 280 279 276 274 269 262 254 247 244 242 240 235 231 227 223 220 216 213 211 210 211 213 214 214 215 216 218 219 218 215 210 204 200 200 201 201 202 200 197 193 190 189 187
305 304 303 302 301 300 299 298 297 297 297 297 297 297 298 298 299 300 301 301 301 301 301 302 302 301 300 298 294 291 287 285 283 281 279 279 278 278 278 279 279 279 279 278 277 275 272 267 260 253 246 241 239 235 231 227 224 221 217 214 211 209 209 210 211 212 213 213 215 215 215 212 209 205 200 198 197 197 198 201 201 197 193 189 187 186
302 301 300 299 298 297 296 295 294 294 294 294 294 294 294 295 296 296 297 298 298 299 299 299 299 299 297 296 293 289 286 284 282 280 278 277 276 276 276 276 277 277 277 277 276 274 270 265 259 253 246 240 236 232 227 224 220 217 213 211 209 209 209 210 211 212 212 213 213 212 210 206 202 198 196 193 193 194 196 199 200 197 192 188 186 185
Height
2978 2978 2977 2977 2976 2976 2976 2976 2976 2976 2976 2976 2976 2977 2977 2978 2978 2979 2980 2981 2982 2984 2985 2986 2987 2988 2990 2991 2993 2994 2996 2998 2999 3001 3003 3005 3007 3009 3011 3012 3013 3014 3016 3018 3019 3020 3021 3022 3023 3025 3026 3027 3028 3028 3030 3031 3033 3035 3037 3038 3040 3042 3043 3044 3046 3048 3049 3050 3051 3053 3054 3055 3057 3058 3059 3060 3061 3062 3063 3063 3062 3063 3063 3063 3063 3063
2980 2979 2979 2978 2978 2978 2977 2977 2977 2977 2978 2978 2978 2978 2979 2979 2980 2981 2981 2982 2983 2984 2986 2987 2988 2989 2990 2992 2993 2995 2997 2998 3000 3001 3003 3005 3007 3009 3010 3011 3013 3015 3017 3017 3018 3019 3020 3021 3022 3024 3026 3027 3028 3029 3030 3030 3032 3033 3036 3038 3039 3040 3042 3044 3046 3047 3048 3049 3050 3052 3053 3055 3056 3057 3058 3059 3060 3061 3061 3061 3061 3061 3061 3061 3061 3062
2981 2981 2980 2980 2980 2979 2979 2979 2979 2979 2979 2979 2980 2980 2981 2981 2981 2982 2983 2983 2984 2985 2986 2988 2989 2990 2991 2992 2994 2995 2997 2998 3000 3001 3003 3004 3006 3008 3009 3010 3012 3015 3017 3018 3018 3018 3019 3019 3021 3023 3025 3027 3028 3029 3029 3029 3030 3032 3034 3037 3038 3040 3041 3043 3045 3046 3046 3048 3050 3051 3052 3054 3055 3056 3057 3058 3058 3059 3059 3060 3060 3060 3060 3060 3060 3060
2983 2983 2982 2982 2981 2981 2981 2981 2981 2981 2981 2981 2982 2982 2983 2983 2983 2983 2984 2985 2985 2986 2987 2988 2989 2990 2991 2993 2994 2995 2997 2998 2999 3001 3003 3004 3005 3007 3008 3010 3012 3013 3016 3018 3018 3019 3019 3018 3020 3023 3024 3026 3027 3028 3029 3029 3030 3032 3033 3036 3038 3039 3041 3042 3043 3044 3045 3048 3049 3050 3052 3053 3054 3055 3056 3057 3057 3058 3058 3058 3058 3058 3059 3059 3059 3059
2984 2984 2983 2983 2983 2983 2983 2983 2983 2983 2983 2983 2983 2984 2984 2984 2985 2985 2986 2986 2987 2987 2988 2988 2989 2990 2991 2993 2994 2995 2997 2998 3000 3001 3002 3004 3005 3006 3008 3009 3011 3013 3014 3017 3018 3019 3019 3018 3019 3021 3023 3025 3026 3028 3029 3030 3030 3031 3033 3035 3037 3038 3040 3041 3042 3043 3045 3047 3048 3049 3051 3052 3053 3054 3055 3055 3056 3057 3057 3057 3057 3057 3058 3058 3058 3058
2985 2985 2985 2985 2984 2984 2984 2984 2985 2985 2985 2985 2985 2985 2985 2986 2986 2986 2987 2987 2988 2988 2989 2990 2990 2991 2992 2993 2994 2995 2996 2998 2999 3001 3002 3003 3004 3006 3007 3009 3010 3012 3013 3015 3017 3018 3018 3019 3019 3020 3022 3023 3025 3027 3029 3030 3031 3032 3033 3035 3036 3038 3039 3040 3041 3042 3044 3046 3047 3048 3049 3051 3052 3053 3054 3054 3055 3055 3055 3056 3056 3056 3057 3057 3057 3057
2986 2986 2986 2986 2986 2986 2986 2986 2986 2986 2986 2986 2987 2987 2987 2987 2988 2988 2988 2988 2989 2989 2990 2991 2991 2992 2993 2993 2994 2995 2996 2997 2998 3000 3001 3003 3004 3005 3007 3008 3009 3011 3013 3014 3016 3017 3018 3019 3019 3020 3021 3022 3023 3026 3028 3030 3031 3032 3033 3034 3035 3037 3038 3039 3040 3041 3043 3045 3046 3047 3048 3049 3051 3052 3053 3053 3054 3054 3054 3054 3055 3055 3055 3056 3056 3056
2987 2987 2987 2987 2987 2987 2987 2988 2988 2988 2988 2988 2988 2988 2988 2988 2989 2989 2989 2990 2990 2991 2991 2992 2992 2993 2993 2993 2994 2995 2996 2997 2998 2999 3000 3002 3003 3005 3007 3009 3010 3011 3013 3014 3015 3016 3017 3018 3019 3020 3020 3021 3023 3025 3028 3029 3030 3032 3033 3034 3035 3035 3037 3038 3039 3041 3042 3044 3046 3046 3047 3048 3049 3050 3051 3052 3052 3053 3053 3053 3053 3054 3054 3054 3054 3054
2988 2988 2988 2988 2988 2988 2988 2988 2988 2988 2988 2988 2988 2989 2989 2989 2990 2990 2991 2991 2992 2992 2992 2992 2993 2993 2993 2994 2994 2995 2996 2997 2998 2999 3000 3001 3003 3004 3006 3008 3010 3011 3012 3013 3014 3015 3017 3018 3018 3018 3019 3021 3023 3025 3028 3029 3031 3032 3033 3033 3034 3034 3036 3037 3038 3040 3042 3044 3045 3045 3046 3047 3048 3049 3050 3050 3051 3051 3052 3052 3053 3053 3053 3053 3053 3053
2989 2989 2989 2989 2988 2989 2989 2989 2989 2989 2989 2989 2989 2989 2990 2990 2991 2992 2992 2992 2993 2993 2993 2993 2993 2994 2994 2994 2995 2995 2996 2997 2997 2998 3000 3001 3003 3004 3005 3006 3008 3010 3011 3013 3014 3015 3016 3017 3018 3019 3020 3022 3024 3026 3028 3029 3030 3031 3032 3033 3033 3033 3034 3036 3038 3039 3040 3042 3043 3044 3045 3046 3047 3048 3048 3049 3050 3050 3051 3051 3052 3052 3052 3052 3052 3052
2990 2990 2990 2990 2990 2990 2990 2990 2990 2990 2990 2990 2991 2991 2991 2991 2992 2993 2993 2993 2994 2994 2994 2995 2995 2995 2995 2996 2996 2996 2996 2997 2998 2998 2999 3001 3002 3003 3004 3006 3007 3008 3009 3011 3013 3014 3016 3017 3018 3019 3021 3023 3024 3026 3028 3028 3029 3031 3032 3032 3032 3033 3034 3035 3037 3038 3039 3041 3042 3043 3044 3045 3046 3046 3047 3048 3049 3049 3050 3050 3051 3051 3051 3051 3051 3050
2991 2991 2991 2991 2991 2991 2991 2991 2991 2991 2991 2992 2992 2992 2993 2993 2993 2993 2994 2994 2995 2995 2996 2996 2996 2997 2997 2997 2997 2997 2997 2998 2998 2999 3000 3001 3002 3003 3004 3005 3006 3008 3009 3011 3013 3014 3015 3016 3017 3018 3019 3021 3022 3024 3025 3026 3028 3030 3031 3030 3031 3032 3033 3035 3036 3037 3038 3040 3041 3042 3043 3044 3044 3045 3046 3047 3048 3048 3049 3049 3049 3049 3049 3049 3049 3049
2993 2992 2992 2992 2992 2992 2992 2992 2992 2992 2992 2993 2993 2993 2993 2994 2994 2994 2995 2995 2996 2996 2997 2997 2997 2998 2998 2998 2998 2998 2998 2999 3000 3001 3001 3001 3002 3003 3003 3004 3006 3008 3010 3011 3013 3014 3015 3015 3016 3017 3018 3020 3021 3023 3024 3025 3027 3029 3030 3030 3030 3031 3033 3034 3035 3037 3038 3039 3040 3041 3042 3043 3044 3045 3046 3047 3047 3048 3048 3048 3048 3048 3048 3048 3048 3047
2994 2993 2993 2993 2993 2993 2993 2993 2993 2993 2993 2993 2994 2994 2994 2995 2995 2995 2996 2996 2997 2997 2998 2998 2998 2998 2998 2998 2999 2999 3000 3000 3001 3002 3003 3004 3004 3004 3005 3007 3008 3010 3011 3012 3013 3014 3015 3015 3016 3018 3019 3020 3021 3023 3024 3025 3026 3027 3028 3029 3030 3031 3032 3033 3034 3036 3037 3038 3039 3040 3041 3042 3043 3044 3045 3046 3046 3047 3047 3047 3047 3047 3047 3046 3046 3046
2995 2995 2994 2994 2994 2993 2993 2993 2993 2993 2994 2994 2994 2995 2995 2995 2995 2996 2997 2997 2998 2998 2998 2999 2999 2999 2999 3000 3000 3000 3001 3002 3002 3003 3004 3006 3007 3007 3008 3009 3009 3010 3010 3011 3012 3013 3014 3015 3016 3017 3018 3020 3021 3022 3023 3025 3026 3026 3028 3029 3030 3030 3032 3033 3034 3035 3037 3038 3039 3040 3041 3042 3042 3043 3044 3045 3045 3045 3045 3045 3045 3045 3045 3045 3045 3044
2997 2996 2996 2995 2995 2995 2995 2994 2994 2994 2994 2995 2995 2995 2996 2996 2996 2997 2997 2998 2998 2999 2999 2999 3000 3000 3000 3001 3001 3001 3002 3003 3003 3003 3004 3005 3007 3009 3010 3010 3010 3010 3011 3011 3012 3013 3014 3015 3016 3017 3018 3019 3020 3022 3023 3024 3025 3027 3028 3029 3030 3031 3032 3033 3035 3036 3037 3038 3039 3040 3040 3041 3042 3042 3043 3043 3043 3044 3044 3044 3044 3044 3044 3043 3043 3043
2998 2998 2997 2997 2996 2996 2996 2995 2995 2995 2995 2995 2995 2996 2996 2996 2997 2997 2998 2998 2999 2999 2999 3000 3000 3001 3001 3002 3002 3002 3003 3003 3003 3004 3005 3006 3007 3008 3010 3010 3011 3011 3012 3013 3013 3013 3014 3015 3016 3017 3018 3019 3020 3020 3022 3023 3024 3026 3028 3030 3031 3032 3032 3033 3035 3036 3037 3038 3038 3039 3039 3040 3041 3041 3041 3042 3042 3043 3043 3043 3043 3043 3042 3042 3042 3042
3000 2999 2998 2998 2997 2997 2997 2996 2996 2996 2996 2996 2996 2996 2996 2997 2997 2997 2998 2998 2999 2999 3000 3000 3001 3001 3002 3002 3003 3003 3004 3004 3004 3004 3005 3006 3008 3008 3009 3010 3011 3011 3012 3013 3013 3013 3014 3015 3016 3017 3018 3018 3019 3020 3021 3023 3024 3026 3028 3030 3032 3032 3032 3032 3033 3034 3036 3037 3038 3038 3038 3039 3039 3040 3040 3041 3041 3041 3042 3042 3041 3041 3041 3041 3041 3041
3001 3000 3000 2999 2998 2998 2998 2998 2997 2997 2997 2997 2997 2997 2997 2997 2997 2998 2998 2998 2999 2999 3000 3000 3001 3001 3002 3003 3003 3003 3004 3004 3005 3005 3006 3006 3008 3008 3009 3010 3011 3011 3011 3012 3012 3013 3013 3014 3015 3017 3018 3018 3019 3020 3022 3023 3025 3027 3028 3030 3030 3030 3030 3031 3033 3034 3035 3036 3036 3037 3037 3038 3038 3038 3039 3039 3040 3040 3040 3040 3040 3039 3039 3040 3040 3040
3003 3002 3001 3000 3000 2999 2999 2999 2998 2998 2998 2998 2998 2998 2998 2998 2998 2998 2998 2998 2999 2999 3000 3000 3001 3001 3002 3003 3003 3003 3004 3004 3005 3005 3006 3007 3007 3008 3008 3009 3009 3010 3011 3011 3012 3012 3013 3014 3016 3017 3018 3018 3019 3020 3022 3023 3024 3026 3027 3027 3028 3028 3029 3031 3032 3033 3034 3034 3035 3035 3036 3036 3036 3037 3038 3038 3039 3039 3038 3038 3038 3038 3038 3039 3039 3039
3004 3003 3002 3002 3001 3001 3000 3000 2999 2999 2999 2999 2999 2998 2998 2998 2998 2998 2999 2999 2999 2999 3000 3000 3001 3001 3002 3002 3003 3003 3004 3004 3005 3005 3006 3007 3007 3008 3008 3008 3008 3009 3009 3010 3011 3012 3013 3015 3016 3017 3018 3018 3019 3020 3021 3022 3023 3023 3024 3025 3027 3028 3029 3030 3031 3032 3032 3033 3033 3033 3034 3034 3035 3036 3037 3037 3037 3037 3037 3037 3037 3037 3038 3038 3038 3038
3004 3004 3003 3003 3002 3002 3001 3001 3000 3000 3000 3000 2999 2999 2999 2999 2999 2999 2999 2999 2999 2999 3000 3000 3001 3001 3002 3002 3002 3003 3003 3004 3004 3005 3006 3006 3007 3007 3008 3008 3008 3008 3008 3009 3011 3012 3013 3015 3016 3017 3018 3018 3019 3020 3021 3023 3023 3024 3025 3026 3027 3028 3028 3029 3030 3030 3030 3031 3031 3032 3033 3033 3034 3035 3036 3036 3036 3035 3035 3035 3036 3036 3037 3037 3037 3037
3004 3004 3004 3003 3003 3003 3002 3002 3001 3001 3001 3000 3000 3000 3000 3000 2999 2999 2999 2999 2999 2999 2999 3000 3000 3001 3001 3002 3002 3002 3003 3003 3004 3004 3005 3006 3006 3006 3006 3007 3007 3007 3008 3009 3010 3012 3013 3014 3015 3017 3018 3019 3020 3021 3022 3023 3024 3025 3026 3026 3027 3027 3028 3028 3028 3028 3028 3029 3030 3031 3032 3033 3033 3034 3034 3034 3034 3034 3034 3034 3035 3036 3036 3036 3036 3036
3005 3005 3004 3004 3003 3003 3003 3003 3002 3002 3001 3001 3001 3001 3000 3000 3000 3000 3000 2999 2999 2999 2999 2999 3000 3000 3001 3001 3002 3002 3002 3003 3003 3003 3004 3005 3005 3005 3006 3006 3007 3007 3008 3009 3011 3012 3013 3014 3015 3016 3018 3019 3020 3021 3022 3023 3024 3025 3025 3025 3025 3026 3026 3026 3026 3027 3027 3028 3029 3030 3031 3032 3032 3033 3033 3033 3033 3033 3033 3033 3034 3035 3035 3035 3034 3034
3006 3005 3005 3004 3004 3004 3003 3003 3003 3003 3002 3002 3002 3001 3001 3001 3001 3001 3000 3000 3000 3000 3000 3000 3000 3000 3000 3001 3001 3002 3002 3003 3003 3003 3003 3004 3004 3005 3005 3007 3007 3008 3009 3010 3011 3012 3013 3014 3015 3016 3017 3018 3020 3021 3022 3023 3023 3023 3023 3023 3023 3024 3024 3025 3025 3026 3027 3028 3029 3029 3030 3030 3031 3031 3031 3031 3031 3032 3032 3033 3033 3034 3034 3033 3033 3033
3007 3006 3006 3005 3005 3004 3004 3003 3003 3003 3003 3002 3002 3002 3002 3002 3001 3001 3001 3001 3001 3001 3001 3000 3000 3000 3000 3000 3001 3001 3002 3003 3003 3003 3003 3004 3004 3005 3006 3007 3008 3009 3010 3011 3012 3013 3014 3015 3016 3016 3017 3018 3020 3021 3021 3021 3021 3021 3021 3022 3023 3023 3024 3025 3026 3027 3027 3028 3028 3028 3029 3029 3029 3029 3029 3030 3030 3031 3031 3032 3032 3033 3033 3032 3032 3032
3007 3007 3006 3006 3005 3005 3005 3004 3004 3003 3003 3003 3003 3002 3002 3002 3002 3001 3001 3001 3001 3001 3001 3001 3001 3001 3001 3001 3001 3001 3002 3002 3003 3003 3004 3004 3004 3005 3007 3008 3009 3010 3011 3012 3013 3014 3014 3015 3016 3016 3017 3018 3018 3019 3019 3020 3020 3021 3021 3022 3023 3023 3024 3025 3025 3026 3026 3027 3027 3027 3028 3028 3028 3028 3028 3029 3029 3030 3031 3031 3031 3031 3031 3031 3031 3031
3008 3007 3007 3007 3006 3006 3005 3005 3004 3004 3004 3003 3003 3003 3003 3002 3002 3002 3002 3001 3001 3001 3001 3001 3001 3001 3001 3001 3001 3001 3002 3002 3003 3003 3004 3004 3005 3006 3007 3008 3010 3011 3011 3012 3013 3014 3014 3015 3015 3015 3016 3016 3017 3018 3018 3019 3020 3020 3021 3022 3023 3023 3023 3024 3024 3025 3025 3025 3026 3026 3026 3027 3027 3027 3028 3028 3029 3029 3030 3030 3030 3030 3030 3030 3030 3030
3008 3008 3008 3007 3007 3006 3006 3005 3005 3005 3004 3004 3003 3003 3003 3003 3002 3002 3002 3002 3001 3001 3001 3001 3001 3002 3002 3002 3002 3002 3002 3002 3003 3003 3004 3005 3006 3006 3007 3008 3009 3011 3012 3013 3013 3013 3013 3014 3014 3014 3015 3016 3016 3017 3018 3018 3019 3020 3021 3021 3022 3022 3023 3023 3023 3023 3023 3024 3024 3025 3025 3026 3026 3026 3027 3027 3028 3028 3029 3029 3029 3029 3029 3029 3029 3029
3009 3008 3008 3008 3007 3007 3006 3006 3005 3005 3005 3004 3004 3003 3003 3003 3003 3002 3002 3002 3002 3001 3001 3001 3001 3002 3002 3002 3002 3002 3003 3003 3003 3004 3004 3005 3006 3006 3007 3007 3008 3010 3011 3012 3012 3012 3013 3013 3013 3014 3014 3015 3016 3016 3017 3018 3018 3019 3020 3020 3021 3021 3021 3021 3022 3022 3022 3023 3023 3024 3024 3025 3025 3025 3026 3027 3027 3028 3028 3028 3028 3028 3028 3028 3028 3028
3009 3009 3008 3008 3008 3007 3007 3006 3006 3006 3005 3005 3004 3004 3003 3003 3003 3003 3003 3002 3002 3002 3002 3001 3001 3001 3002 3002 3002 3002 3003 3003 3003 3004 3004 3005 3005 3006 3007 3007 3008 3008 3009 3010 3011 3011 3011 3012 3013 3013 3014 3014 3015 3016 3016 3017 3018 3018 3018 3019 3019 3020 3020 3020 3021 3021 3022 3022 3023 3023 3023 3024 3024 3025 3025 3026 3026 3027 3027 3027 3027 3027 3027 3028 3028 3028
3009 3009 3009 3008 3008 3008 3007 3007 3006 3006 3006 3005 3005 3004 3004 3003 3003 3003 3003 3003 3002 3002 3002 3002 3001 3001 3001 3002 3002 3002 3003 3003 3003 3004 3004 3004 3005 3006 3006 3007 3007 3008 3008 3009 3009 3009 3010 3011 3011 3012 3013 3013 3014 3015 3015 3016 3016 3017 3017 3018 3018 3019 3019 3019 3020 3020 3021 3021 3022 3022 3023 3023 3023 3024 3024 3025 3025 3025 3025 3026 3026 3026 3026 3027 3027 3027
3009 3009 3008 3008 3008 3008 3008 3007 3007 3006 3006 3005 3005 3004 3004 3003 3003 3003 3003 3003 3002 3002 3002 3002 3001 3001 3001 3001 3002 3002 3002 3003 3003 3003 3004 3004 3004 3005 3006 3006 3007 3007 3007 3008 3008 3008 3009 3009 3010 3011 3011 3012 3013 3014 3014 3015 3015 3016 3016 3017 3018 3018 3018 3019 3019 3020 3020 3020 3021 3021 3022 3022 3022 3023 3023 3023 3024 3024 3024 3025 3025 3025 3025 3026 3026 3026
3008 3008 3008 3008 3008 3007 3007 3007 3007 3006 3006 3006 3005 3005 3004 3004 3003 3003 3003 3002 3002 3002 3002 3002 3001 3001 3001 3001 3001 3001 3001 3002 3002 3003 3003 3003 3004 3004 3004 3005 3006 3006 3007 3007 3007 3008 3008 3009 3009 3010 3010 3011 3012 3013 3013 3014 3014 3015 3015 3016 3017 3017 3018 3018 3018 3019 3019 3020 3020 3020 3021 3021 3021 3022 3022 3023 3023 3023 3023 3024 3024 3024 3025 3025 3025 3026
3008 3008 3007 3007 3007 3007 3007 3006 3006 3006 3006 3005 3005 3005 3004 3004 3003 3003 3003 3002 3002 3002 3002 3002 3002 3001 3001 3001 3001 3001 3001 3001 3001 3002 3002 3003 3003 3003 3003 3004 3005 3005 3006 3006 3006 3007 3008 3008 3008 3009 3009 3010 3011 3012 3012 3013 3013 3013 3014 3015 3015 3016 3017 3017 3018 3018 3018 3018 3019 3019 3020 3020 3021 3021 3021 3022 3022 3022 3023 3023 3023 3023 3024 3024 3024 3025
3007 3007 3006 3006 3006 3006 3006 3005 3005 3005 3005 3005 3005 3004 3004 3004 3003 3003 3003 3002 3002 3002 3002 3001 3001 3001 3001 3001 3001 3001 3001 3001 3001 3001 3001 3002 3002 3002 3003 3003 3003 3004 3005 3005 3005 3006 3006 3007 3007 3008 3008 3009 3010 3010 3011 3012 3012 3013 3013 3014 3014 3015 3015 3016 3016 3017 3017 3018 3018 3018 3019 3019 3020 3020 3020 3021 3021 3021 3022 3022 3023 3023 3023 3023 3023 3024
3006 3006 3005 3005 3005 3005 3004 3004 3004 3004 3004 3004 3004 3003 3003 3003 3003 3003 3002 3002 3002 3001 3001 3001 3001 3001 3001 3001 3001 3001 3000 3000 3000 3000 3000 3001 3001 3001 3002 3002 3002 3003 3003 3004 3005 3005 3005 3006 3006 3007 3008 3008 3008 3009 3009 3010 3011 3011 3012 3013 3013 3014 3014 3015 3015 3016 3016 3017 3017 3018 3018 3018 3019 3019 3019 3020 3020 3020 3021 3021 3022 3022 3022 3023 3023 3023
3005 3005 3004 3004 3004 3003 3003 3003 3003 3003 3003 3003 3003 3002 3002 3002 3002 3002 3001 3001 3001 3001 3001 3000 3000 3000 3000 3000 3000 3000 3000 3000 3000 3000 3000 3000 3000 3000 3001 3001 3001 3002 3003 3003 3003 3004 3004 3005 3005 3006 3006 3007 3007 3008 3008 3008 3009 3010 3011 3012 3012 3013 3013 3013 3014 3014 3015 3015 3016 3016 3017 3017 3018 3018 3018 3019 3019 3019 3020 3020 3021 3021 3021 3022 3022 3022
3004 3003 3003 3003 3002 3002 3002 3002 3001 3001 3001 3001 3001 3001 3001 3000 3000 3000 3000 3000 3000 3000 3000 2999 2999 2999 2999 2999 2999 2999 2999 2999 2999 2999 2999 2999 2999 2999 3000 3000 3000 3001 3001 3002 3002 3003 3003 3003 3004 3004 3005 3005 3006 3006 3006 3007 3008 3008 3009 3010 3011 3011 3012 3012 3013 3013 3014 3014 3015 3015 3016 3016 3017 3017 3017 3018 3018 3018 3019 3019 3020 3020 3020 3021 3021 3021
3002 3002 3002 3001 3001 3000 3000 3000 3000 2999 2999 2999 2999 2999 2999 2999 2999 2999 2999 2998 2998 2998 2998 2998 2998 2998 2998 2998 2998 2998 2998 2998 2998 2998 2998 2998 2998 2998 2998 2999 2999 2999 3000 3000 3001 3001 3002 3002 3002 3003 3003 3003 3004 3004 3004 3005 3006 3007 3008 3008 3009 3009 3010 3011 3011 3012 3012 3013 3013 3014 3014 3015 3015 3016 3016 3017 3017 3018 3018 3019 3019 3019 3019 3020 3020 3021
3001 3000 3000 3000 2999 2999 2998 2998 2998 2998 2997 2997 2997 2997 2997 2997 2997 2997 2997 2997 2997 2997 2997 2997 2997 2997 2997 2997 2997 2997 2997 2997 2997 2997 2997 2997 2997 2997 2997 2998 2998 2998 2998 2999 2999 2999 3000 3000 3000 3001 3001 3001 3002 3002 3003 3003 3004 3004 3005 3006 3007 3008 3008 3009 3010 3010 3011 3012 3012 3013 3013 3014 3014 3015 3015 3015 3016 3016 3017 3018 3018 3018 3019 3019 3019 3020
2999 2999 2998 2998 2998 2997 2997 2996 2996 2996 2995 2995 2995 2995 2995 2995 2995 2995 2995 2995 2995 2995 2996 2996 2995 2995 2995 2995 2995 2995 2995 2995 2995 2995 2995 2995 2995 2995 2995 2996 2996 2996 2997 2997 2997 2997 2998 2998 2998 2998 2998 2998 2999 2999 3000 3001 3001 3002 3003 3004 3005 3006 3007 3007 3008 3008 3009 3010 3011 3011 3012 3013 3013 3013 3014 3014 3015 3015 3016 3017 3017 3018 3018 3018 3019 3019
2998 2997 2997 2997 2996 2996 2995 2995 2994 2994 2994 2993 2993 2993 2993 2993 2993 2993 2993 2993 2993 2993 2993 2993 2993 2993 2993 2993 2993 2993 2993 2993 2993 2993 2993 2993 2993 2993 2993 2993 2994 2994 2994 2995 2995 2995 2995 2995 2995 2996 2996 2996 2997 2997 2998 2998 2999 3000 3001 3002 3003 3003 3004 3005 3006 3007 3008 3008 3009 3010 3011 3011 3012 3012 3013 3013 3014 3014 3015 3016 3016 3017 3017 3018 3018 3018
2996 2996 2995 2995 2994 2994 2994 2993 2993 2993 2992 2992 2992 2992 2991 2991 2991 2991 2991 2991 2991 2991 2991 2992 2992 2992 2992 2992 2992 2992 2992 2992 2992 2992 2992 2991 2991 2991 2991 2991 2992 2992 2992 2993 2993 2993 2993 2993 2993 2993 2993 2994 2994 2995 2995 2996 2997 2997 2998 2999 3000 3002 3003 3003 3004 3005 3006 3007 3008 3008 3009 3010 3010 3011 3012 3012 3013 3013 3014 3015 3015 3016 3016 3017 3017 3018
2995 2994 2994 2993 2993 2993 2992 2992 2991 2991 2991 2990 2990 2990 2990 2990 2989 2989 2989 2989 2989 2989 2989 2989 2989 2990 2990 2990 2990 2990 2990 2990 2990 2990 2990 2989 2989 2989 2989 2989 2989 2989 2990 2990 2990 2991 2991 2991 2991 2991 2991 2992 2992 2993 2993 2994 2994 2995 2996 2997 2998 2999 3000 3001 3002 3003 3004 3005 3006 3007 3008 3008 3009 3010 3010 3011 3012 3013 3013 3014 3015 3015 3016 3016 3017 3017
2993 2993 2992 2992 2991 2991 2991 2990 2990 2989 2989 2989 2988 2988 2988 2988 2988 2988 2987 2987 2987 2987 2987 2987 2988 2988 2988 2988 2988 2988 2988 2988 2988 2988 2988 2988 2988 2988 2987 2987 2987 2988 2988 2988 2988 2988 2988 2988 2989 2989 2989 2990 2990 2991 2991 2992 2993 2993 2994 2995 2996 2997 2998 2999 3000 3001 3003 3003 3005 3006 3007 3007 3008 3009 3009 3010 3011 3012 3013 3013 3014 3015 3015 3016 3016 3017
2992 2991 2991 2990 2990 2989 2989 2988 2988 2988 2988 2987 2987 2987 2987 2986 2986 2986 2986 2985 2985 2985 2985 2985 2985 2986 2986 2986 2986 2986 2986 2986 2986 2986 2986 2986 2986 2986 2985 2985 2985 2985 2986 2986 2986 2986 2986 2987 2987 2987 2987 2988 2988 2989 2990 2990 2991 2992 2992 2993 2994 2995 2996 2997 2998 3000 3001 3002 3003 3004 3005 3006 3007 3008 3008 3009 3010 3011 3012 3013 3013 3014 3014 3015 3016 3016
2990 2989 2989 2989 2988 2988 2988 2987 2987 2986 2986 2986 2985 2985 2985 2985 2984 2984 2984 2984 2983 2983 2983 2983 2983 2984 2984 2984 2984 2984 2984 2984 2984 2984 2984 2984 2984 2984 2984 2983 2983 2983 2984 2984 2984 2984 2984 2985 2985 2985 2986 2986 2987 2988 2988 2989 2989 2990 2991 2992 2993 2994 2995 2996 2997 2998 3000 3001 3002 3003 3004 3005 3005 3006 3007 3008 3009 3010 3011 3012 3013 3013 3014 3014 3015 3016
2988 2988 2987 2987 2987 2986 2986 2985 2985 2985 2984 2984 2984 2983 2983 2983 2983 2983 2982 2982 2982 2982 2981 2982 2982 2982 2982 2982 2983 2982 2982 2982 2982 2982 2982 2982 2982 2982 2982 2982 2982 2982 2982 2982 2982 2983 2983 2983 2983 2983 2984 2984 2985 2986 2987 2988 2988 2989 2989 2990 2991 2993 2993 2995 2996 2997 2998 2999 3001 3002 3003 3003 3004 3005 3006 3007 3008 3009 3010 3011 3012 3013 3013 3014 3015 3015
2986 2985 2985 2985 2985 2984 2984 2984 2983 2983 2983 2983 2982 2982 2982 2981 2981 2981 2981 2980 2980 2980 2980 2980 2980 2980 2980 2980 2980 2980 2980 2980 2980 2980 2980 2980 2980 2980 2980 2980 2980 2980 2980 2981 2981 2981 2981 2981 2982 2982 2982 2983 2984 2984 2985 2986 2987 2988 2988 2989 2990 2991 2993 2993 2994 2996 2997 2998 2999 3000 3001 3002 3003 3004 3005 3006 3008 3008 3009 3010 3011 3012 3013 3013 3014 3015
2984 2983 2983 2983 2983 2983 2982 2982 2982 2981 2981 2981 2980 2980 2980 2979 2979 2979 2979 2979 2978 2978 2978 2978 2978 2978 2978 2978 2978 2978 2978 2978 2978 2978 2978 2978 2978 2978 2978 2978 2978 2979 2979 2979 2979 2979 2979 2980 2980 2980 2981 2982 2982 2983 2984 2985 2986 2987 2988 2988 2989 2990 2991 2992 2993 2994 2996 2997 2998 2999 3000 3001 3002 3003 3004 3006 3007 3008 3009 3010 3011 3012 3012 3013 3014 3014